Location: Great Falls
(47.5000°N, 111.3000°W)
Time: 18:29:02
(UTC-06:00)

N. Korean satellite - Visible Passes

Search period start: 16 October 2018 00:00
Search period end: 26 October 2018 00:00
Orbit: 459 x 510 km, 97.2° (Epoch: 16 October)

Date Brightness Start Highest point End Pass type
(mag) Time Alt. Az. Time Alt. Az. Time Alt. Az.
16 Oct 9.6 07:06:27 10° NE 07:09:26 23° E 07:12:23 10° SSE visible
16 Oct 8.0 19:17:59 10° S 19:21:33 45° W 19:25:11 10° NNW visible
17 Oct 10.4 06:43:09 10° ENE 06:44:48 13° E 06:46:26 10° ESE visible
18 Oct 10.1 20:04:17 10° SW 20:06:27 15° W 20:08:39 10° NW visible
19 Oct 9.1 19:38:39 10° SSW 19:41:51 27° W 19:45:04 10° NW visible
20 Oct 9.8 07:02:21 10° NE 07:05:10 21° E 07:07:56 10° SE visible
20 Oct 7.7 19:13:41 10° S 19:17:19 50° W 19:21:00 10° NNW visible
21 Oct 10.5 06:39:23 10° ENE 06:40:30 11° E 06:41:37 10° ESE visible
22 Oct 10.0 19:59:46 10° SW 20:02:10 16° W 20:04:36 10° NW visible
23 Oct 8.7 07:22:06 10° NNE 07:25:27 34° E 07:28:44 10° SSE visible
23 Oct 8.9 19:34:16 10° SSW 19:37:34 29° W 19:40:53 10° NNW visible
24 Oct 9.9 06:58:15 10° NE 07:00:51 18° E 07:03:24 10° SE visible
24 Oct 7.5 19:09:22 10° S 19:13:02 56° W 19:16:45 10° NNW visible
